Location: Burla
(50.9568°N, 10.4983°E)
Time: 02:07:10
(UTC+00:00)

Cosmos 1190 Rocket - Pass Details

Date: 18 January 2026
Orbit: 753 x 775 km, 74.1° (Epoch: 6 February)

Event Time Altitude Azimuth Distance (km) Brightness Sun altitude
Rises 06:11:05 0° 201° (SSW) 3,207 7.2 -9.4°
Reaches altitude 10° 06:13:27 10° 201° (SSW) 2,283 6.5 -9.0°
Maximum altitude 06:18:37 87° 116° (ESE) 764 4.1 -8.3°
Drops below altitude 10° 06:23:50 10° 25° (NNE) 2,290 6.5 -7.5°
Sets 06:26:12 0° 25° (NNE) 3,218 7.3 -7.2°
